Saint Bonnet de Bellac- Haute Vienne - France
Donnes mto: samedi, 07/04/2012
Date Horaire Temp. E. Hum. E. P.atmo. Pluie Vent Direction Direction Ensoleilleme Solaire P. de rose Temp au vent Rafales
07/04/2012 00:00 10,9 C 77 % 1006,3 hPa 0,0 mm 2,2 km/h (1 Bft) NE 45 0 min 0 W/m 7,0 C 10,9 C 2,9 km/h (1 Bft)
07/04/2012 00:10 10,9 C 77 % 1006,4 hPa 0,0 mm 5,0 km/h (1 Bft) N-NE 22 0 min 0 W/m 7,0 C 10,9 C 9,0 km/h (2 Bft)
07/04/2012 00:20 10,9 C 76 % 1006,4 hPa 0,0 mm 2,9 km/h (1 Bft) NE 45 0 min 0 W/m 6,8 C 10,9 C 4,0 km/h (1 Bft)
07/04/2012 00:30 10,9 C 75 % 1006,3 hPa 0,0 mm 2,9 km/h (1 Bft) NE 45 0 min 0 W/m 6,6 C 10,9 C 6,5 km/h (2 Bft)
07/04/2012 00:40 10,9 C 74 % 1006,3 hPa 0,0 mm 4,0 km/h (1 Bft) N 360 0 min 0 W/m 6,5 C 10,9 C 9,7 km/h (2 Bft)
07/04/2012 00:50 10,8 C 74 % 1006,3 hPa 0,0 mm 5,4 km/h (2 Bft) N-NE 22 0 min 0 W/m 6,4 C 10,8 C 7,9 km/h (2 Bft)
07/04/2012 01:00 10,8 C 74 % 1006,4 hPa 0,0 mm 6,1 km/h (2 Bft) N-NE 22 0 min 0 W/m 6,4 C 10,8 C 9,0 km/h (2 Bft)
07/04/2012 01:10 10,8 C 74 % 1006,5 hPa 0,0 mm 6,1 km/h (2 Bft) N-NE 22 0 min 0 W/m 6,4 C 10,8 C 9,0 km/h (2 Bft)
07/04/2012 01:20 10,7 C 74 % 1006,4 hPa 0,0 mm 1,8 km/h (1 Bft) N-NE 22 0 min 0 W/m 6,3 C 10,7 C 6,5 km/h (2 Bft)
07/04/2012 01:30 10,6 C 74 % 1006,3 hPa 0,0 mm 3,2 km/h (1 Bft) N-NE 22 0 min 0 W/m 6,2 C 10,6 C 4,7 km/h (1 Bft)
07/04/2012 01:40 10,5 C 74 % 1006,2 hPa 0,0 mm 6,5 km/h (2 Bft) NE 45 0 min 0 W/m 6,1 C 10,5 C 7,9 km/h (2 Bft)
07/04/2012 01:50 10,4 C 74 % 1006,2 hPa 0,0 mm 0,4 km/h (0 Bft) N-NE 22 0 min 0 W/m 6,0 C 10,4 C 3,2 km/h (1 Bft)
07/04/2012 02:00 10,3 C 74 % 1006,3 hPa 0,0 mm 0,0 km/h (0 Bft) NE 45 0 min 0 W/m 5,9 C 10,3 C 0,0 km/h (0 Bft)
07/04/2012 02:10 10,3 C 74 % 1006,2 hPa 0,0 mm 0,0 km/h (0 Bft) NE 45 0 min 0 W/m 5,9 C 10,3 C 0,0 km/h (0 Bft)
07/04/2012 02:20 10,2 C 74 % 1006,3 hPa 0,0 mm 1,1 km/h (1 Bft) NE 45 0 min 0 W/m 5,8 C 10,2 C 4,0 km/h (1 Bft)
07/04/2012 02:30 10,0 C 75 % 1006,1 hPa 0,0 mm 5,4 km/h (2 Bft) NE 45 0 min 0 W/m 5,8 C 9,6 C 5,4 km/h (2 Bft)
07/04/2012 02:40 10,0 C 75 % 1006,0 hPa 0,0 mm 7,2 km/h (2 Bft) N-NE 22 0 min 0 W/m 5,8 C 9,2 C 7,2 km/h (2 Bft)
07/04/2012 02:50 10,0 C 75 % 1005,9 hPa 0,0 mm 1,4 km/h (1 Bft) NE 45 0 min 0 W/m 5,8 C 10,0 C 4,3 km/h (1 Bft)
07/04/2012 03:02 9,9 C 75 % 1005,9 hPa 0,0 mm 5,4 km/h (2 Bft) N-NE 22 0 min 0 W/m 5,7 C 9,5 C 7,9 km/h (2 Bft)
07/04/2012 03:10 9,9 C 76 % 1006,0 hPa 0,0 mm 7,9 km/h (2 Bft) N-NE 22 0 min 0 W/m 5,9 C 8,9 C 7,9 km/h (2 Bft)
07/04/2012 03:20 9,8 C 76 % 1005,9 hPa 0,0 mm 5,4 km/h (2 Bft) N-NE 22 0 min 0 W/m 5,8 C 9,4 C 5,8 km/h (2 Bft)
07/04/2012 03:30 9,6 C 77 % 1005,9 hPa 0,0 mm 5,4 km/h (2 Bft) NE 45 0 min 0 W/m 5,8 C 9,2 C 9,4 km/h (2 Bft)
07/04/2012 03:40 9,5 C 78 % 1006,0 hPa 0,0 mm 7,2 km/h (2 Bft) N 360 0 min 0 W/m 5,9 C 8,6 C 7,6 km/h (2 Bft)
07/04/2012 03:50 9,4 C 78 % 1006,1 hPa 0,0 mm 4,7 km/h (1 Bft) N 360 0 min 0 W/m 5,8 C 9,2 C 6,8 km/h (2 Bft)
07/04/2012 04:00 9,3 C 78 % 1006,1 hPa 0,0 mm 5,4 km/h (2 Bft) NE 45 0 min 0 W/m 5,7 C 8,8 C 5,4 km/h (2 Bft)
07/04/2012 04:10 9,1 C 78 % 1006,1 hPa 0,4 mm 2,9 km/h (1 Bft) NE 45 0 min 0 W/m 5,5 C 9,1 C 4,3 km/h (1 Bft)
07/04/2012 04:20 8,7 C 79 % 1006,0 hPa 0,3 mm 2,9 km/h (1 Bft) NE 45 0 min 0 W/m 5,3 C 8,7 C 4,3 km/h (1 Bft)
07/04/2012 04:30 8,4 C 80 % 1006,0 hPa 0,1 mm 4,3 km/h (1 Bft) NE 45 0 min 0 W/m 5,2 C 8,4 C 9,0 km/h (2 Bft)
07/04/2012 04:40 8,2 C 81 % 1006,0 hPa 0,0 mm 1,1 km/h (1 Bft) NE 45 0 min 0 W/m 5,1 C 8,2 C 4,3 km/h (1 Bft)
07/04/2012 04:50 7,9 C 82 % 1006,0 hPa 0,0 mm 2,5 km/h (1 Bft) NE 45 0 min 0 W/m 5,0 C 7,9 C 4,3 km/h (1 Bft)
07/04/2012 05:00 7,8 C 82 % 1006,0 hPa 0,0 mm 2,9 km/h (1 Bft) NE 45 0 min 0 W/m 4,9 C 7,8 C 7,9 km/h (2 Bft)
07/04/2012 05:10 7,8 C 83 % 1006,1 hPa 0,0 mm 3,2 km/h (1 Bft) NE 45 0 min 0 W/m 5,1 C 7,8 C 4,3 km/h (1 Bft)
07/04/2012 05:20 7,6 C 82 % 1006,1 hPa 0,0 mm 0,7 km/h (0 Bft) N-NE 22 0 min 0 W/m 4,7 C 7,6 C 4,0 km/h (1 Bft)
07/04/2012 05:30 7,5 C 82 % 1005,9 hPa 0,0 mm 0,0 km/h (0 Bft) N-NE 22 0 min 0 W/m 4,6 C 7,5 C 3,2 km/h (1 Bft)
07/04/2012 05:40 7,3 C 82 % 1006,0 hPa 0,0 mm 0,0 km/h (0 Bft) N-NE 22 0 min 0 W/m 4,4 C 7,3 C 0,0 km/h (0 Bft)
07/04/2012 05:50 7,1 C 82 % 1006,0 hPa 0,0 mm 0,4 km/h (0 Bft) N-NE 22 0 min 0 W/m 4,2 C 7,1 C 3,2 km/h (1 Bft)
07/04/2012 06:00 6,8 C 83 % 1006,0 hPa 0,0 mm 1,8 km/h (1 Bft) NE 45 0 min 0 W/m 4,1 C 6,8 C 3,6 km/h (1 Bft)
07/04/2012 06:10 6,6 C 83 % 1006,0 hPa 0,0 mm 0,0 km/h (0 Bft) NE 45 0 min 0 W/m 3,9 C 6,6 C 0,0 km/h (0 Bft)
07/04/2012 06:20 6,5 C 83 % 1006,1 hPa 0,0 mm 2,2 km/h (1 Bft) N 360 0 min 0 W/m 3,8 C 6,5 C 6,1 km/h (2 Bft)
07/04/2012 06:30 6,4 C 83 % 1006,1 hPa 0,0 mm 4,3 km/h (1 Bft) N-NE 22 0 min 0 W/m 3,7 C 6,4 C 7,6 km/h (2 Bft)
07/04/2012 06:40 6,4 C 84 % 1006,1 hPa 0,0 mm 0,4 km/h (0 Bft) N-NE 22 0 min 0 W/m 3,9 C 6,4 C 3,6 km/h (1 Bft)
07/04/2012 06:50 6,4 C 84 % 1006,1 hPa 0,0 mm 2,2 km/h (1 Bft) NE 45 0 min 0 W/m 3,9 C 6,4 C 6,5 km/h (2 Bft)
07/04/2012 07:00 6,5 C 84 % 1006,2 hPa 0,0 mm 1,1 km/h (1 Bft) NE 45 0 min 0 W/m 4,0 C 6,5 C 4,0 km/h (1 Bft)
07/04/2012 07:10 6,6 C 84 % 1006,2 hPa 0,0 mm 1,1 km/h (1 Bft) N-NE 22 0 min 0 W/m 4,1 C 6,6 C 3,6 km/h (1 Bft)
07/04/2012 07:20 6,6 C 84 % 1006,3 hPa 0,0 mm 5,0 km/h (1 Bft) N-NE 22 0 min 0 W/m 4,1 C 5,9 C 10,1 km/h (2 Bft)
07/04/2012 07:30 6,6 C 83 % 1006,5 hPa 0,0 mm 1,8 km/h (1 Bft) NE 45 0 min 0 W/m 3,9 C 6,6 C 2,9 km/h (1 Bft)
07/04/2012 07:40 6,6 C 83 % 1006,5 hPa 0,0 mm 4,7 km/h (1 Bft) N-NE 22 2 min 0 W/m 3,9 C 6,0 C 7,6 km/h (2 Bft)
07/04/2012 07:50 6,6 C 83 % 1006,6 hPa 0,0 mm 4,0 km/h (1 Bft) NE 45 2 min 0 W/m 3,9 C 6,6 C 4,3 km/h (1 Bft)
07/04/2012 08:00 6,6 C 82 % 1006,6 hPa 0,0 mm 1,8 km/h (1 Bft) NE 45 2 min 0 W/m 3,8 C 6,6 C 4,3 km/h (1 Bft)
07/04/2012 08:10 6,5 C 82 % 1006,7 hPa 0,0 mm 3,6 km/h (1 Bft) NE 45 2 min 0 W/m 3,7 C 6,5 C 6,5 km/h (2 Bft)
07/04/2012 08:20 6,5 C 82 % 1006,8 hPa 0,0 mm 1,1 km/h (1 Bft) N-NE 22 2 min 0 W/m 3,7 C 6,5 C 4,0 km/h (1 Bft)
07/04/2012 08:30 6,5 C 82 % 1006,9 hPa 0,0 mm 6,1 km/h (2 Bft) N-NE 22 2 min 0 W/m 3,7 C 5,4 C 11,2 km/h (2 Bft)
07/04/2012 08:40 6,6 C 81 % 1007,0 hPa 0,0 mm 5,0 km/h (1 Bft) N-NE 22 2 min 0 W/m 3,6 C 5,9 C 8,6 km/h (2 Bft)
07/04/2012 08:50 6,6 C 81 % 1007,0 hPa 0,0 mm 0,7 km/h (0 Bft) NE 45 2 min 0 W/m 3,6 C 6,6 C 4,3 km/h (1 Bft)
07/04/2012 09:00 6,9 C 81 % 1007,0 hPa 0,0 mm 1,1 km/h (1 Bft) NE 45 2 min 0 W/m 3,9 C 6,9 C 1,1 km/h (1 Bft)
07/04/2012 09:10 7,1 C 80 % 1007,2 hPa 0,0 mm 2,9 km/h (1 Bft) N-NE 22 2 min 0 W/m 3,9 C 7,1 C 7,2 km/h (2 Bft)
07/04/2012 09:20 7,4 C 80 % 1007,2 hPa 0,0 mm 6,1 km/h (2 Bft) N-NE 22 2 min 0 W/m 4,2 C 6,5 C 12,2 km/h (2 Bft)
07/04/2012 09:30 7,7 C 79 % 1007,2 hPa 0,0 mm 6,8 km/h (2 Bft) E-NE 67 2 min 0 W/m 4,3 C 6,6 C 6,8 km/h (2 Bft)
07/04/2012 09:40 8,0 C 77 % 1007,3 hPa 0,0 mm 9,7 km/h (2 Bft) N-NO 337 2 min 0 W/m 4,2 C 6,3 C 15,1 km/h (3 Bft)
07/04/2012 09:50 8,4 C 77 % 1007,5 hPa 0,0 mm 4,0 km/h (1 Bft) N-NE 22 2 min 0 W/m 4,6 C 8,4 C 6,1 km/h (2 Bft)
07/04/2012 10:00 8,6 C 76 % 1007,7 hPa 0,0 mm 4,0 km/h (1 Bft) NE 45 2 min 0 W/m 4,6 C 8,6 C 4,0 km/h (1 Bft)
07/04/2012 10:10 8,8 C 75 % 1007,7 hPa 0,0 mm 5,0 km/h (1 Bft) N-NE 22 2 min 0 W/m 4,6 C 8,4 C 6,1 km/h (2 Bft)
07/04/2012 10:20 8,9 C 75 % 1007,7 hPa 0,0 mm 6,8 km/h (2 Bft) N-NE 22 2 min 0 W/m 4,7 C 8,0 C 9,7 km/h (2 Bft)
07/04/2012 10:30 9,5 C 74 % 1007,9 hPa 0,0 mm 6,5 km/h (2 Bft) N-NE 22 2 min 0 W/m 5,1 C 8,8 C 10,4 km/h (2 Bft)
07/04/2012 10:40 9,9 C 73 % 1007,9 hPa 0,0 mm 2,2 km/h (1 Bft) NE 45 2 min 0 W/m 5,3 C 9,9 C 4,0 km/h (1 Bft)
07/04/2012 10:50 10,1 C 71 % 1008,0 hPa 0,0 mm 6,1 km/h (2 Bft) N-NE 22 2 min 0 W/m 5,1 C 10,1 C 6,1 km/h (2 Bft)
07/04/2012 11:00 10,3 C 70 % 1008,0 hPa 0,0 mm 4,0 km/h (1 Bft) E-NE 67 2 min 0 W/m 5,1 C 10,3 C 6,5 km/h (2 Bft)
07/04/2012 11:10 10,5 C 70 % 1008,0 hPa 0,0 mm 5,4 km/h (2 Bft) N-NE 22 2 min 0 W/m 5,3 C 10,5 C 7,6 km/h (2 Bft)
07/04/2012 11:20 10,6 C 68 % 1008,0 hPa 0,0 mm 6,1 km/h (2 Bft) N-NE 22 2 min 0 W/m 4,9 C 10,6 C 8,6 km/h (2 Bft)
07/04/2012 11:30 10,6 C 67 % 1008,1 hPa 0,0 mm 5,8 km/h (2 Bft) NE 45 2 min 0 W/m 4,7 C 10,6 C 9,4 km/h (2 Bft)
07/04/2012 11:40 11,2 C 67 % 1008,2 hPa 0,0 mm 11,2 km/h (2 Bft) N 360 2 min 0 W/m 5,3 C 11,2 C 18,0 km/h (3 Bft)
07/04/2012 11:50 11,7 C 65 % 1008,2 hPa 0,0 mm 6,1 km/h (2 Bft) E-NE 67 2 min 0 W/m 5,3 C 11,7 C 6,5 km/h (2 Bft)
07/04/2012 12:00 12,4 C 64 % 1008,3 hPa 0,0 mm 5,0 km/h (1 Bft) NE 45 2 min 0 W/m 5,8 C 12,4 C 10,1 km/h (2 Bft)
07/04/2012 12:10 12,9 C 62 % 1008,2 hPa 0,0 mm 6,1 km/h (2 Bft) E-NE 67 2 min 0 W/m 5,8 C 12,9 C 10,1 km/h (2 Bft)
07/04/2012 12:20 13,4 C 61 % 1008,2 hPa 0,0 mm 6,8 km/h (2 Bft) NE 45 2 min 0 W/m 6,0 C 13,4 C 7,9 km/h (2 Bft)
07/04/2012 12:30 13,8 C 60 % 1008,3 hPa 0,0 mm 4,7 km/h (1 Bft) NE 45 2 min 0 W/m 6,2 C 13,8 C 8,3 km/h (2 Bft)
07/04/2012 12:40 14,3 C 57 % 1008,2 hPa 0,0 mm 11,9 km/h (2 Bft) N-NE 22 2 min 0 W/m 5,9 C 14,3 C 15,1 km/h (3 Bft)
07/04/2012 12:50 14,6 C 55 % 1008,2 hPa 0,0 mm 6,1 km/h (2 Bft) NE 45 2 min 0 W/m 5,7 C 14,6 C 8,6 km/h (2 Bft)
07/04/2012 13:00 14,4 C 55 % 1008,2 hPa 0,0 mm 6,1 km/h (2 Bft) N-NE 22 2 min 0 W/m 5,5 C 14,4 C 7,2 km/h (2 Bft)
07/04/2012 13:10 14,4 C 55 % 1008,2 hPa 0,0 mm 6,1 km/h (2 Bft) NE 45 2 min 0 W/m 5,5 C 14,4 C 6,8 km/h (2 Bft)
07/04/2012 13:20 14,5 C 54 % 1008,2 hPa 0,0 mm 5,8 km/h (2 Bft) N-NE 22 2 min 0 W/m 5,3 C 14,5 C 11,5 km/h (2 Bft)
07/04/2012 13:30 14,9 C 54 % 1008,1 hPa 0,0 mm 6,1 km/h (2 Bft) N 360 2 min 0 W/m 5,7 C 14,9 C 10,4 km/h (2 Bft)
07/04/2012 13:40 15,3 C 50 % 1008,1 hPa 0,0 mm 11,5 km/h (2 Bft) N-NO 337 2 min 0 W/m 4,9 C 15,3 C 17,3 km/h (3 Bft)
07/04/2012 13:50 15,3 C 49 % 1008,0 hPa 0,0 mm 4,3 km/h (1 Bft) NE 45 2 min 0 W/m 4,7 C 15,3 C 4,3 km/h (1 Bft)
07/04/2012 14:00 15,4 C 49 % 1008,0 hPa 0,0 mm 9,4 km/h (2 Bft) N-NE 22 2 min 0 W/m 4,7 C 15,4 C 13,0 km/h (3 Bft)
07/04/2012 14:10 15,4 C 50 % 1008,0 hPa 0,0 mm 4,7 km/h (1 Bft) N-NE 22 2 min 0 W/m 5,0 C 15,4 C 9,7 km/h (2 Bft)
07/04/2012 14:20 15,5 C 49 % 1008,0 hPa 0,0 mm 7,2 km/h (2 Bft) N-NO 337 2 min 0 W/m 4,8 C 15,5 C 10,4 km/h (2 Bft)
07/04/2012 14:30 15,4 C 48 % 1008,0 hPa 0,0 mm 6,1 km/h (2 Bft) NE 45 2 min 0 W/m 4,4 C 15,4 C 10,8 km/h (2 Bft)
07/04/2012 14:40 15,7 C 48 % 1007,9 hPa 0,0 mm 8,6 km/h (2 Bft) N-NE 22 2 min 0 W/m 4,7 C 15,7 C 16,6 km/h (3 Bft)
07/04/2012 14:50 15,8 C 46 % 1008,1 hPa 0,0 mm 7,6 km/h (2 Bft) N-NE 22 2 min 0 W/m 4,2 C 15,8 C 18,0 km/h (3 Bft)
07/04/2012 15:00 15,6 C 44 % 1008,1 hPa 0,0 mm 9,4 km/h (2 Bft) NE 45 2 min 0 W/m 3,4 C 15,6 C 16,9 km/h (3 Bft)
07/04/2012 15:10 15,4 C 44 % 1008,3 hPa 0,0 mm 9,7 km/h (2 Bft) N 360 2 min 0 W/m 3,2 C 15,4 C 10,1 km/h (2 Bft)
07/04/2012 15:20 15,3 C 44 % 1008,0 hPa 0,0 mm 0,0 km/h (0 Bft) NO 315 2 min 0 W/m 3,1 C 15,3 C 0,0 km/h (0 Bft)
07/04/2012 15:30 15,6 C 41 % 1008,1 hPa 0,0 mm 9,7 km/h (2 Bft) O 270 2 min 0 W/m 2,4 C 15,6 C 20,2 km/h (4 Bft)
07/04/2012 15:40 15,6 C 41 % 1008,0 hPa 0,0 mm 4,7 km/h (1 Bft) N 360 2 min 0 W/m 2,4 C 15,6 C 6,5 km/h (2 Bft)
07/04/2012 15:50 15,8 C 41 % 1008,0 hPa 0,0 mm 9,0 km/h (2 Bft) N-NE 22 2 min 0 W/m 2,6 C 15,8 C 9,4 km/h (2 Bft)
07/04/2012 16:00 16,1 C 39 % 1008,1 hPa 0,0 mm 11,2 km/h (2 Bft) N-NE 22 2 min 0 W/m 2,1 C 16,1 C 11,2 km/h (2 Bft)
07/04/2012 16:10 16,0 C 39 % 1007,9 hPa 0,0 mm 9,4 km/h (2 Bft) E-NE 67 2 min 0 W/m 2,1 C 16,0 C 15,1 km/h (3 Bft)
07/04/2012 16:20 15,8 C 40 % 1007,8 hPa 0,0 mm 3,2 km/h (1 Bft) N-NE 22 2 min 0 W/m 2,2 C 15,8 C 3,2 km/h (1 Bft)
07/04/2012 16:30 16,0 C 39 % 1007,8 hPa 0,0 mm 6,8 km/h (2 Bft) N 360 2 min 0 W/m 2,1 C 16,0 C 10,1 km/h (2 Bft)
07/04/2012 16:40 15,9 C 37 % 1007,9 hPa 0,0 mm 6,1 km/h (2 Bft) N-NE 22 2 min 0 W/m 1,2 C 15,9 C 11,2 km/h (2 Bft)
07/04/2012 16:50 15,5 C 37 % 1007,7 hPa 0,0 mm 7,2 km/h (2 Bft) NE 45 2 min 0 W/m 0,9 C 15,5 C 7,9 km/h (2 Bft)
07/04/2012 17:00 15,2 C 38 % 1007,7 hPa 0,0 mm 4,7 km/h (1 Bft) NE 45 2 min 0 W/m 1,0 C 15,2 C 8,6 km/h (2 Bft)
07/04/2012 17:10 15,2 C 37 % 1007,7 hPa 0,0 mm 8,3 km/h (2 Bft) N 360 2 min 0 W/m 0,6 C 15,2 C 9,7 km/h (2 Bft)
07/04/2012 17:20 15,2 C 35 % 1007,8 hPa 0,0 mm 7,6 km/h (2 Bft) N-NE 22 2 min 0 W/m -0,2 C 15,2 C 13,0 km/h (3 Bft)
07/04/2012 17:30 15,3 C 35 % 1007,8 hPa 0,0 mm 7,2 km/h (2 Bft) NE 45 2 min 0 W/m -0,1 C 15,3 C 13,0 km/h (3 Bft)
07/04/2012 17:40 15,3 C 35 % 1007,9 hPa 0,0 mm 9,0 km/h (2 Bft) N 360 2 min 0 W/m -0,1 C 15,3 C 12,6 km/h (3 Bft)
07/04/2012 17:50 14,9 C 37 % 1008,0 hPa 0,0 mm 5,8 km/h (2 Bft) N 360 2 min 0 W/m 0,3 C 14,9 C 11,9 km/h (2 Bft)
07/04/2012 18:00 14,8 C 38 % 1008,1 hPa 0,0 mm 6,5 km/h (2 Bft) N 360 2 min 0 W/m 0,6 C 14,8 C 6,5 km/h (2 Bft)
07/04/2012 18:10 14,6 C 41 % 1008,2 hPa 0,0 mm 6,5 km/h (2 Bft) N-NE 22 2 min 0 W/m 1,5 C 14,6 C 8,6 km/h (2 Bft)
07/04/2012 18:20 14,4 C 42 % 1008,3 hPa 0,0 mm 5,8 km/h (2 Bft) N-NO 337 2 min 0 W/m 1,7 C 14,4 C 9,4 km/h (2 Bft)
07/04/2012 18:30 14,1 C 44 % 1008,3 hPa 0,0 mm 8,6 km/h (2 Bft) N-NE 22 2 min 0 W/m 2,0 C 14,1 C 10,4 km/h (2 Bft)
07/04/2012 18:40 13,9 C 46 % 1008,4 hPa 0,0 mm 2,9 km/h (1 Bft) NE 45 2 min 0 W/m 2,5 C 13,9 C 8,6 km/h (2 Bft)
07/04/2012 18:50 13,7 C 47 % 1008,5 hPa 0,0 mm 6,1 km/h (2 Bft) N-NE 22 2 min 0 W/m 2,6 C 13,7 C 11,5 km/h (2 Bft)
07/04/2012 19:00 13,4 C 49 % 1008,6 hPa 0,0 mm 3,2 km/h (1 Bft) N 360 2 min 0 W/m 2,9 C 13,4 C 7,9 km/h (2 Bft)
07/04/2012 19:10 13,1 C 51 % 1008,7 hPa 0,0 mm 6,1 km/h (2 Bft) N-NE 22 2 min 0 W/m 3,2 C 13,1 C 8,3 km/h (2 Bft)
07/04/2012 19:20 12,8 C 52 % 1008,8 hPa 0,0 mm 4,3 km/h (1 Bft) N-NE 22 2 min 0 W/m 3,2 C 12,8 C 7,6 km/h (2 Bft)
07/04/2012 19:30 12,6 C 53 % 1008,8 hPa 0,0 mm 5,0 km/h (1 Bft) N 360 2 min 0 W/m 3,3 C 12,6 C 7,6 km/h (2 Bft)
07/04/2012 19:40 12,5 C 54 % 1008,9 hPa 0,0 mm 4,0 km/h (1 Bft) N 360 2 min 0 W/m 3,5 C 12,5 C 6,8 km/h (2 Bft)
07/04/2012 19:50 12,3 C 54 % 1009,0 hPa 0,0 mm 9,4 km/h (2 Bft) NE 45 2 min 0 W/m 3,3 C 12,3 C 14,4 km/h (3 Bft)
07/04/2012 20:00 12,2 C 55 % 1009,2 hPa 0,0 mm 11,9 km/h (2 Bft) NE 45 2 min 0 W/m 3,4 C 12,2 C 11,9 km/h (2 Bft)
07/04/2012 20:10 11,9 C 56 % 1009,3 hPa 0,0 mm 10,4 km/h (2 Bft) NE 45 2 min 0 W/m 3,4 C 11,9 C 13,3 km/h (3 Bft)
07/04/2012 20:20 11,8 C 57 % 1009,5 hPa 0,0 mm 2,9 km/h (1 Bft) NE 45 2 min 0 W/m 3,6 C 11,8 C 3,6 km/h (1 Bft)
07/04/2012 20:30 11,5 C 57 % 1009,5 hPa 0,0 mm 4,7 km/h (1 Bft) NE 45 0 min 0 W/m 3,3 C 11,5 C 4,7 km/h (1 Bft)
07/04/2012 20:40 11,3 C 58 % 1009,6 hPa 0,0 mm 6,5 km/h (2 Bft) N 360 0 min 0 W/m 3,3 C 11,3 C 14,0 km/h (3 Bft)
07/04/2012 20:50 11,1 C 59 % 1009,7 hPa 0,0 mm 7,6 km/h (2 Bft) N 360 0 min 0 W/m 3,4 C 11,1 C 14,4 km/h (3 Bft)
07/04/2012 21:00 10,9 C 60 % 1009,9 hPa 0,0 mm 9,4 km/h (2 Bft) N 360 0 min 0 W/m 3,4 C 10,9 C 9,4 km/h (2 Bft)
07/04/2012 21:10 10,6 C 60 % 1010,0 hPa 0,0 mm 8,3 km/h (2 Bft) N-NO 337 0 min 0 W/m 3,2 C 10,6 C 13,0 km/h (3 Bft)
07/04/2012 21:20 10,4 C 61 % 1010,1 hPa 0,0 mm 4,0 km/h (1 Bft) N-NE 22 0 min 0 W/m 3,2 C 10,4 C 6,8 km/h (2 Bft)
07/04/2012 21:30 10,1 C 61 % 1010,3 hPa 0,0 mm 0,7 km/h (0 Bft) N 360 0 min 0 W/m 2,9 C 10,1 C 2,9 km/h (1 Bft)
07/04/2012 21:40 9,8 C 62 % 1010,5 hPa 0,0 mm 0,4 km/h (0 Bft) N 360 0 min 0 W/m 2,9 C 9,8 C 3,6 km/h (1 Bft)
07/04/2012 21:50 9,6 C 62 % 1010,6 hPa 0,0 mm 2,2 km/h (1 Bft) N-NO 337 0 min 0 W/m 2,7 C 9,6 C 2,9 km/h (1 Bft)
07/04/2012 22:00 9,4 C 63 % 1010,8 hPa 0,0 mm 2,5 km/h (1 Bft) N-NE 22 0 min 0 W/m 2,7 C 9,4 C 4,3 km/h (1 Bft)
07/04/2012 22:10 9,2 C 64 % 1010,8 hPa 0,0 mm 0,7 km/h (0 Bft) NE 45 0 min 0 W/m 2,8 C 9,2 C 2,9 km/h (1 Bft)
07/04/2012 22:20 9,1 C 64 % 1010,8 hPa 0,0 mm 0,0 km/h (0 Bft) N-NE 22 0 min 0 W/m 2,7 C 9,1 C 3,6 km/h (1 Bft)
07/04/2012 22:30 8,9 C 65 % 1011,0 hPa 0,0 mm 0,0 km/h (0 Bft) N-NE 22 0 min 0 W/m 2,7 C 8,9 C 0,0 km/h (0 Bft)
07/04/2012 22:40 8,9 C 66 % 1011,0 hPa 0,0 mm 0,0 km/h (0 Bft) N-NE 22 0 min 0 W/m 2,9 C 8,9 C 0,0 km/h (0 Bft)
07/04/2012 22:50 8,8 C 66 % 1011,1 hPa 0,0 mm 0,0 km/h (0 Bft) N 360 0 min 0 W/m 2,8 C 8,8 C 0,0 km/h (0 Bft)
07/04/2012 23:00 8,8 C 67 % 1011,3 hPa 0,0 mm 0,0 km/h (0 Bft) N 360 0 min 0 W/m 3,0 C 8,8 C 0,0 km/h (0 Bft)
07/04/2012 23:10 8,8 C 67 % 1011,4 hPa 0,0 mm 0,0 km/h (0 Bft) N-NE 22 0 min 0 W/m 3,0 C 8,8 C 0,0 km/h (0 Bft)
07/04/2012 23:20 8,8 C 68 % 1011,5 hPa 0,0 mm 0,4 km/h (0 Bft) N-NO 337 0 min 0 W/m 3,2 C 8,8 C 3,6 km/h (1 Bft)
07/04/2012 23:30 8,8 C 68 % 1011,6 hPa 0,0 mm 0,0 km/h (0 Bft) N 360 0 min 0 W/m 3,2 C 8,8 C 3,6 km/h (1 Bft)
07/04/2012 23:40 8,6 C 68 % 1011,8 hPa 0,0 mm 0,4 km/h (0 Bft) N 360 0 min 0 W/m 3,0 C 8,6 C 0,4 km/h (0 Bft)
07/04/2012 23:50 8,6 C 68 % 1011,8 hPa 0,0 mm 2,2 km/h (1 Bft) N-NO 337 0 min 0 W/m 3,0 C 8,6 C 4,0 km/h (1 Bft)
_ Min-Heure 06:50 17:40 05:30 - 23:30 - - - - 17:20 08:30 23:10
Minimum _ 6,4 C 35 % 1005,9 hPa - 0,0 km/h (0 Bft) - - - - -0,2 C 5,4 C 0,0 km/h (0 Bft)
_ Max-Heure 16:00 07:20 23:50 04:10 20:00 - - 20:20 23:50 00:10 16:00 15:30
Maximum _ 16,1 C 84 % 1011,8 hPa 0,4 mm 11,9 km/h
NE (2 Bft)
- - 2 min 0 W/m 7,0 C 16,1 C 20,2 km/h
O (4 Bft)
Moyenne _ 10,9 C 65 % 1007,8 hPa #0,8 mm 4,6 km/h (1 Bft) N-NE - #2:34 h 0 W/m 4,1 C 10,8 C 7,4 km/h (2 Bft)
Saint Bonnet de Bellac- Haute Vienne - France